| time (UTC) | temp F | wind direction | speed MPH | gust MPH | rain 1hr in | rain 24hr in | rain mn in | humidity % | barometer mb |
| 20260504174003 | 71 | 232 | 11.0 | 23.0 | 0.00 | 0.00 | 0.00 | 51 | 1011.0 |
| 20260504173503 | 72 | 242 | 9.0 | 21.0 | 0.00 | 0.00 | 0.00 | 51 | 1011.1 |
| 20260504173016 | 71 | 181 | 12.0 | 21.0 | 0.00 | 0.00 | 0.00 | 52 | 1011.1 |
| 20260504172502 | 71 | 219 | 7.0 | 22.0 | 0.00 | 0.00 | 0.00 | 52 | 1011.1 |
| 20260504172006 | 72 | 142 | 8.0 | 22.0 | 0.00 | 0.00 | 0.00 | 51 | 1011.2 |
| 20260504171518 | 72 | 196 | 9.0 | 19.0 | 0.00 | 0.00 | 0.00 | 50 | 1011.2 |
| 20260504171012 | 71 | 209 | 8.0 | 19.0 | 0.00 | 0.00 | 0.00 | 51 | 1011.4 |
| 20260504170508 | 71 | 231 | 10.0 | 20.0 | 0.00 | 0.00 | 0.00 | 51 | 1011.4 |
| 20260504151006 | 68 | 163 | 8.0 | 19.0 | 0.00 | 0.00 | 0.00 | 53 | 1011.9 |
| 20260504150507 | 68 | 120 | 6.0 | 10.0 | 0.00 | 0.00 | 0.00 | 54 | 1012.0 |
| 20260504141012 | 65 | 233 | 10.0 | 23.0 | 0.00 | 0.00 | 0.00 | 56 | 1012.4 |
| 20260504140506 | 65 | 196 | 8.0 | 24.0 | 0.00 | 0.00 | 0.00 | 56 | 1012.4 |
| 20260504130512 | 62 | 219 | 8.0 | 13.0 | 0.00 | 0.00 | 0.00 | 58 | 1012.5 |
| 20260504110504 | 60 | 223 | 7.0 | 14.0 | 0.00 | 0.00 | 0.00 | 58 | 1011.7 |
| 20260504100503 | 60 | 231 | 4.0 | 15.0 | 0.00 | 0.00 | 0.00 | 57 | 1012.2 |
| 20260504081518 | 61 | 172 | 6.0 | 18.0 | 0.00 | 0.00 | 0.00 | 57 | 1012.5 |
| 20260504081007 | 61 | 231 | 5.0 | 18.0 | 0.00 | 0.00 | 0.00 | 58 | 1012.6 |
| 20260504080509 | 61 | 204 | 5.0 | 14.0 | 0.00 | 0.00 | 0.00 | 58 | 1012.6 |
| 20260504050509 | 64 | 262 | 5.0 | 11.0 | 0.00 | 0.00 | 0.00 | 54 | 1014.2 |
| 20260504050020 | 65 | 247 | 2.0 | 15.0 | 0.00 | 0.00 | 0.00 | 55 | 1014.3 |
| 20260504045501 | 65 | 176 | 6.0 | 14.0 | 0.00 | 0.00 | 0.00 | 54 | 1014.3 |
| 20260504045003 | 64 | 259 | 6.0 | 14.0 | 0.00 | 0.00 | 0.00 | 55 | 1014.3 |
| 20260504044505 | 64 | 229 | 5.0 | 8.0 | 0.00 | 0.00 | 0.00 | 55 | 1014.4 |
| 20260504044003 | 65 | 236 | 3.0 | 11.0 | 0.00 | 0.00 | 0.00 | 55 | 1014.3 |
| 20260504043503 | 65 | 194 | 4.0 | 11.0 | 0.00 | 0.00 | 0.00 | 55 | 1014.4 |
| 20260504043006 | 65 | 238 | 5.0 | 10.0 | 0.00 | 0.00 | 0.00 | 55 | 1014.4 |
| 20260504042503 | 65 | 125 | 4.0 | 12.0 | 0.00 | 0.00 | 0.00 | 55 | 1014.4 |
| 20260504042004 | 65 | 171 | 3.0 | 12.0 | 0.00 | 0.00 | 0.00 | 55 | 1014.5 |
| 20260504041511 | 64 | 234 | 5.0 | 12.0 | 0.00 | 0.00 | 0.00 | 56 | 1014.6 |
| 20260504041004 | 64 | 234 | 5.0 | 12.0 | 0.00 | 0.00 | 0.00 | 56 | 1014.5 |
| 20260504040503 | 64 | 167 | 2.0 | 9.0 | 0.00 | 0.00 | 0.00 | 56 | 1014.6 |
| 20260504040019 | 64 | 202 | 4.0 | 9.0 | 0.00 | 0.00 | 0.00 | 56 | 1014.7 |
| 20260504035505 | 64 | 211 | 4.0 | 16.0 | 0.00 | 0.00 | 0.00 | 56 | 1014.7 |
| 20260504035007 | 64 | 228 | 4.0 | 16.0 | 0.00 | 0.00 | 0.00 | 57 | 1014.8 |
| 20260504034535 | 64 | 186 | 4.0 | 8.0 | 0.00 | 0.00 | 0.00 | 57 | 1014.8 |
| 20260504034003 | 63 | 187 | 4.0 | 8.0 | 0.00 | 0.00 | 0.00 | 57 | 1014.9 |
| 20260504033508 | 63 | 172 | 3.0 | 8.0 | 0.00 | 0.00 | 0.00 | 57 | 1014.9 |
| 20260504033006 | 63 | 163 | 3.0 | 8.0 | 0.00 | 0.00 | 0.00 | 57 | 1015.0 |
| 20260504032503 | 63 | 219 | 3.0 | 7.0 | 0.00 | 0.00 | 0.00 | 57 | 1015.0 |
| 20260504032003 | 63 | 215 | 3.0 | 7.0 | 0.00 | 0.00 | 0.00 | 57 | 1015.0 |
| 20260504031508 | 63 | 227 | 3.0 | 7.0 | 0.00 | 0.00 | 0.00 | 58 | 1015.1 |
| 20260504031004 | 63 | 238 | 2.0 | 5.0 | 0.00 | 0.00 | 0.00 | 58 | 1015.1 |
| 20260504030506 | 63 | 186 | 3.0 | 7.0 | 0.00 | 0.00 | 0.00 | 58 | 1015.2 |
| 20260504030015 | 63 | 190 | 1.0 | 7.0 | 0.00 | 0.00 | 0.00 | 58 | 1015.1 |
| 20260504025507 | 63 | 188 | 2.0 | 7.0 | 0.00 | 0.00 | 0.00 | 58 | 1015.2 |
| 20260504025007 | 63 | 222 | 1.0 | 5.0 | 0.00 | 0.00 | 0.00 | 58 | 1015.2 |
| 20260504024519 | 63 | 175 | 1.0 | 5.0 | 0.00 | 0.00 | 0.00 | 58 | 1015.2 |
| 20260504024008 | 63 | 184 | 3.0 | 5.0 | 0.00 | 0.00 | 0.00 | 57 | 1015.2 |
| 20260504023507 | 63 | 173 | 1.0 | 5.0 | 0.00 | 0.00 | 0.00 | 57 | 1015.1 |
| 20260504023024 | 63 | 190 | 1.0 | 5.0 | 0.00 | 0.00 | 0.00 | 57 | 1015.0 |
| 20260504022508 | 63 | 192 | 2.0 | 4.0 | 0.00 | 0.00 | 0.00 | 56 | 1015.0 |
| 20260504022003 | 63 | 180 | 0.0 | 5.0 | 0.00 | 0.00 | 0.00 | 56 | 1015.0 |
| 20260504021505 | 64 | 174 | 1.0 | 4.0 | 0.00 | 0.00 | 0.00 | 56 | 1015.0 |
| 20260504021003 | 64 | 181 | 2.0 | 4.0 | 0.00 | 0.00 | 0.00 | 56 | 1015.0 |
| 20260504020505 | 64 | 161 | 2.0 | 4.0 | 0.00 | 0.00 | 0.00 | 56 | 1014.9 |
| 20260504020012 | 64 | 175 | 1.0 | 3.0 | 0.00 | 0.00 | 0.00 | 56 | 1014.9 |
| 20260504015504 | 64 | 173 | 1.0 | 2.0 | 0.00 | 0.00 | 0.00 | 55 | 1014.9 |
| 20260504015004 | 64 | 180 | 1.0 | 6.0 | 0.00 | 0.00 | 0.00 | 55 | 1014.7 |
| 20260504014519 | 64 | 185 | 2.0 | 6.0 | 0.00 | 0.00 | 0.00 | 55 | 1014.7 |
| 20260504014009 | 64 | 172 | 2.0 | 5.0 | 0.00 | 0.00 | 0.00 | 55 | 1014.7 |
| 20260504013507 | 65 | 206 | 1.0 | 4.0 | 0.00 | 0.00 | 0.00 | 54 | 1014.7 |
| 20260504013019 | 65 | 177 | 1.0 | 4.0 | 0.00 | 0.00 | 0.00 | 54 | 1014.7 |
| 20260504012507 | 65 | 210 | 1.0 | 4.0 | 0.00 | 0.00 | 0.00 | 53 | 1014.7 |
| 20260504012010 | 66 | 198 | 0.0 | 4.0 | 0.00 | 0.00 | 0.00 | 53 | 1014.7 |
| 20260504011524 | 66 | 165 | 2.0 | 4.0 | 0.00 | 0.00 | 0.00 | 52 | 1014.7 |
| 20260504011004 | 66 | 175 | 1.0 | 5.0 | 0.00 | 0.00 | 0.00 | 51 | 1014.7 |
| 20260504010504 | 67 | 256 | 1.0 | 5.0 | 0.00 | 0.00 | 0.00 | 51 | 1014.7 |
| 20260504010009 | 67 | 169 | 1.0 | 5.0 | 0.00 | 0.00 | 0.00 | 50 | 1014.7 |
| 20260504005508 | 68 | 167 | 2.0 | 5.0 | 0.00 | 0.00 | 0.00 | 49 | 1014.8 |
| 20260504005004 | 68 | 309 | 2.0 | 7.0 | 0.00 | 0.00 | 0.00 | 48 | 1014.9 |
| 20260504004511 | 68 | 180 | 2.0 | 7.0 | 0.00 | 0.00 | 0.00 | 48 | 1014.9 |
| 20260504004004 | 69 | 163 | 2.0 | 6.0 | 0.00 | 0.00 | 0.00 | 48 | 1014.9 |
| 20260504003510 | 69 | 186 | 3.0 | 7.0 | 0.00 | 0.00 | 0.00 | 47 | 1014.9 |
| 20260504003019 | 69 | 219 | 1.0 | 6.0 | 0.00 | 0.00 | 0.00 | 46 | 1014.9 |
| 20260504002508 | 70 | 219 | 2.0 | 6.0 | 0.00 | 0.00 | 0.00 | 46 | 1014.9 |
| 20260504002008 | 70 | 202 | 2.0 | 7.0 | 0.00 | 0.00 | 0.00 | 46 | 1014.8 |
| 20260504001524 | 70 | 207 | 2.0 | 7.0 | 0.00 | 0.00 | 0.00 | 46 | 1014.9 |
| 20260504001007 | 70 | 152 | 2.0 | 6.0 | 0.00 | 0.00 | 0.00 | 46 | 1014.9 |
| 20260504000510 | 70 | 155 | 2.0 | 6.0 | 0.00 | 0.00 | 0.00 | 46 | 1014.9 |
| 20260504000007 | 71 | 148 | 2.0 | 6.0 | 0.00 | 0.00 | 0.00 | 44 | 1014.9 |
| 20260503235504 | 71 | 167 | 2.0 | 6.0 | 0.00 | 0.00 | 0.00 | 44 | 1015.0 |
| 20260503235004 | 72 | 172 | 3.0 | 10.0 | 0.00 | 0.00 | 0.00 | 42 | 1015.0 |
| 20260503234512 | 72 | 301 | 4.0 | 10.0 | 0.00 | 0.00 | 0.00 | 42 | 1015.0 |
| 20260503234005 | 72 | 294 | 3.0 | 10.0 | 0.00 | 0.00 | 0.00 | 43 | 1015.1 |
| 20260503233504 | 73 | 277 | 2.0 | 6.0 | 0.00 | 0.00 | 0.00 | 41 | 1015.0 |
| 20260503233016 | 73 | 198 | 2.0 | 9.0 | 0.00 | 0.00 | 0.00 | 42 | 1014.9 |
| 20260503232505 | 73 | 182 | 4.0 | 12.0 | 0.00 | 0.00 | 0.00 | 40 | 1015.1 |
| 20260503232006 | 73 | 209 | 6.0 | 12.0 | 0.00 | 0.00 | 0.00 | 39 | 1015.1 |
| 20260503231521 | 73 | 123 | 5.0 | 11.0 | 0.00 | 0.00 | 0.00 | 41 | 1015.1 |
| 20260503231008 | 73 | 211 | 3.0 | 11.0 | 0.00 | 0.00 | 0.00 | 39 | 1015.2 |
| 20260503230509 | 74 | 227 | 4.0 | 10.0 | 0.00 | 0.00 | 0.00 | 39 | 1015.2 |
| 20260503230025 | 74 | 205 | 5.0 | 12.0 | 0.00 | 0.00 | 0.00 | 39 | 1015.1 |
| 20260503225509 | 74 | 248 | 4.0 | 12.0 | 0.00 | 0.00 | 0.00 | 36 | 1015.2 |
| 20260503225010 | 74 | 245 | 4.0 | 10.0 | 0.00 | 0.00 | 0.00 | 38 | 1015.2 |
| 20260503224527 | 74 | 242 | 4.0 | 18.0 | 0.00 | 0.00 | 0.00 | 36 | 1015.2 |
| 20260503224004 | 74 | 229 | 7.0 | 18.0 | 0.00 | 0.00 | 0.00 | 37 | 1015.2 |
| 20260503223503 | 74 | 207 | 5.0 | 10.0 | 0.00 | 0.00 | 0.00 | 38 | 1015.2 |
| 20260503223023 | 74 | 195 | 6.0 | 10.0 | 0.00 | 0.00 | 0.00 | 39 | 1015.3 |
| 20260503222505 | 74 | 219 | 5.0 | 15.0 | 0.00 | 0.00 | 0.00 | 39 | 1015.4 |
| 20260503222009 | 74 | 229 | 5.0 | 15.0 | 0.00 | 0.00 | 0.00 | 39 | 1015.4 |
| 20260503221518 | 74 | 202 | 5.0 | 10.0 | 0.00 | 0.00 | 0.00 | 39 | 1015.5 |
| 20260503221010 | 74 | 165 | 4.0 | 13.0 | 0.00 | 0.00 | 0.00 | 38 | 1015.5 |
| 20260503220509 | 74 | 195 | 7.0 | 15.0 | 0.00 | 0.00 | 0.00 | 36 | 1015.5 |
| 20260503220029 | 74 | 242 | 4.0 | 15.0 | 0.00 | 0.00 | 0.00 | 37 | 1015.6 |
| 20260503215508 | 74 | 212 | 4.0 | 15.0 | 0.00 | 0.00 | 0.00 | 38 | 1015.7 |
| 20260503215012 | 74 | 234 | 8.0 | 15.0 | 0.00 | 0.00 | 0.00 | 36 | 1015.6 |
| 20260503214523 | 74 | 217 | 5.0 | 14.0 | 0.00 | 0.00 | 0.00 | 37 | 1015.6 |
| 20260503214009 | 74 | 184 | 7.0 | 14.0 | 0.00 | 0.00 | 0.00 | 41 | 1015.6 |
| 20260503213511 | 74 | 250 | 6.0 | 14.0 | 0.00 | 0.00 | 0.00 | 38 | 1015.6 |
| 20260503213014 | 75 | 286 | 5.0 | 13.0 | 0.00 | 0.00 | 0.00 | 37 | 1015.8 |
| 20260503212503 | 75 | 202 | 6.0 | 13.0 | 0.00 | 0.00 | 0.00 | 38 | 1016.0 |
| 20260503212007 | 74 | 234 | 6.0 | 13.0 | 0.00 | 0.00 | 0.00 | 37 | 1016.1 |
| 20260503211523 | 74 | 216 | 5.0 | 17.0 | 0.00 | 0.00 | 0.00 | 38 | 1016.2 |
| 20260503211006 | 74 | 288 | 5.0 | 21.0 | 0.00 | 0.00 | 0.00 | 38 | 1016.4 |
| 20260503210508 | 74 | 222 | 8.0 | 21.0 | 0.00 | 0.00 | 0.00 | 35 | 1016.4 |
| 20260503210020 | 75 | 232 | 6.0 | 13.0 | 0.00 | 0.00 | 0.00 | 38 | 1016.4 |
| 20260503205513 | 74 | 224 | 5.0 | 13.0 | 0.00 | 0.00 | 0.00 | 38 | 1016.4 |
| 20260503205009 | 74 | 209 | 7.0 | 16.0 | 0.00 | 0.00 | 0.00 | 38 | 1016.5 |
| 20260503204536 | 74 | 168 | 8.0 | 16.0 | 0.00 | 0.00 | 0.00 | 36 | 1016.6 |
| 20260503204011 | 74 | 232 | 7.0 | 18.0 | 0.00 | 0.00 | 0.00 | 36 | 1016.6 |
| 20260503203507 | 74 | 250 | 8.0 | 18.0 | 0.00 | 0.00 | 0.00 | 39 | 1016.7 |
| 20260503203028 | 74 | 219 | 8.0 | 17.0 | 0.00 | 0.00 | 0.00 | 37 | 1016.7 |
| 20260503202512 | 74 | 194 | 8.0 | 15.0 | 0.00 | 0.00 | 0.00 | 38 | 1016.7 |
| 20260503202007 | 74 | 218 | 7.0 | 14.0 | 0.00 | 0.00 | 0.00 | 37 | 1016.9 |
| 20260503201523 | 74 | 229 | 8.0 | 16.0 | 0.00 | 0.00 | 0.00 | 36 | 1017.0 |
| 20260503201006 | 74 | 194 | 7.0 | 16.0 | 0.00 | 0.00 | 0.00 | 40 | 1017.0 |
| 20260503200502 | 74 | 185 | 6.0 | 15.0 | 0.00 | 0.00 | 0.00 | 37 | 1017.0 |
| 20260503200004 | 74 | 271 | 9.0 | 15.0 | 0.00 | 0.00 | 0.00 | 35 | 1017.1 |
| 20260503195504 | 74 | 197 | 8.0 | 18.0 | 0.00 | 0.00 | 0.00 | 35 | 1017.1 |
| 20260503195003 | 74 | 222 | 9.0 | 18.0 | 0.00 | 0.00 | 0.00 | 37 | 1017.2 |
| 20260503194506 | 74 | 144 | 6.0 | 14.0 | 0.00 | 0.00 | 0.00 | 38 | 1017.3 |
| 20260503194003 | 73 | 222 | 6.0 | 14.0 | 0.00 | 0.00 | 0.00 | 37 | 1017.3 |
| 20260503193503 | 73 | 240 | 10.0 | 18.0 | 0.00 | 0.00 | 0.00 | 36 | 1017.4 |
| 20260503193029 | 73 | 236 | 7.0 | 18.0 | 0.00 | 0.00 | 0.00 | 36 | 1017.4 |
| 20260503192509 | 73 | 241 | 6.0 | 15.0 | 0.00 | 0.00 | 0.00 | 39 | 1017.4 |
| 20260503192002 | 73 | 288 | 8.0 | 18.0 | 0.00 | 0.00 | 0.00 | 37 | 1017.4 |
| 20260503191525 | 73 | 275 | 4.0 | 19.0 | 0.00 | 0.00 | 0.00 | 39 | 1017.4 |
| 20260503191011 | 73 | 211 | 9.0 | 17.0 | 0.00 | 0.00 | 0.00 | 36 | 1017.5 |
| 20260503190509 | 73 | 246 | 7.0 | 15.0 | 0.00 | 0.00 | 0.00 | 40 | 1017.5 |
| 20260503190018 | 73 | 224 | 7.0 | 15.0 | 0.00 | 0.00 | 0.00 | 36 | 1017.5 |
| 20260503185511 | 73 | 311 | 3.0 | 16.0 | 0.00 | 0.00 | 0.00 | 39 | 1017.5 |
| 20260503185002 | 72 | 190 | 6.0 | 16.0 | 0.00 | 0.00 | 0.00 | 42 | 1017.6 |
| 20260503184504 | 72 | 223 | 7.0 | 16.0 | 0.00 | 0.00 | 0.00 | 39 | 1017.6 |
| 20260503184003 | 72 | 233 | 8.0 | 16.0 | 0.00 | 0.00 | 0.00 | 39 | 1017.9 |
| 20260503183502 | 72 | 227 | 7.0 | 17.0 | 0.00 | 0.00 | 0.00 | 39 | 1017.8 |
| 20260503183004 | 72 | 209 | 7.0 | 17.0 | 0.00 | 0.00 | 0.00 | 40 | 1018.0 |
| 20260503182505 | 72 | 239 | 9.0 | 20.0 | 0.00 | 0.00 | 0.00 | 40 | 1018.0 |
| 20260503182006 | 71 | 257 | 6.0 | 20.0 | 0.00 | 0.00 | 0.00 | 40 | 1018.0 |
| 20260503181512 | 71 | 187 | 9.0 | 15.0 | 0.00 | 0.00 | 0.00 | 42 | 1018.1 |
| 20260503181006 | 71 | 221 | 7.0 | 17.0 | 0.00 | 0.00 | 0.00 | 39 | 1018.2 |
| 20260503180506 | 71 | 225 | 6.0 | 17.0 | 0.00 | 0.00 | 0.00 | 44 | 1018.3 |
| 20260503180026 | 70 | 215 | 7.0 | 14.0 | 0.00 | 0.00 | 0.00 | 41 | 1018.3 |
| 20260503175505 | 70 | 260 | 7.0 | 12.0 | 0.00 | 0.00 | 0.00 | 42 | 1018.4 |
| 20260503175005 | 70 | 226 | 6.0 | 12.0 | 0.00 | 0.00 | 0.00 | 42 | 1018.4 |
| 20260503174524 | 70 | 174 | 6.0 | 15.0 | 0.00 | 0.00 | 0.00 | 48 | 1018.5 |